| time (UTC) | temp C | wind direction | speed KPH | gust KPH | rain 1hr cm | rain 24hr cm | rain mn cm | humidity % | barometer mb |
| 20260510220904 | 16 | 0 | 0.0 | 0.0 | 0.00 | 0.13 | 0.00 | 44 | 1016.5 |
| 20260510220004 | 15 | 0 | 0.0 | 0.0 | 0.00 | 0.13 | 0.00 | 45 | 1016.4 |
| 20260510215617 | 15 | 0 | 0.0 | 0.0 | 0.00 | 0.13 | 0.00 | 47 | 1016.4 |
| 20260510214504 | 15 | 0 | 0.0 | 0.0 | 0.00 | 0.13 | 0.00 | 46 | 1016.2 |
| 20260510213603 | 15 | 0 | 0.0 | 0.0 | 0.00 | 0.13 | 0.00 | 46 | 1016.1 |
| 20260510212919 | 15 | 0 | 0.0 | 0.0 | 0.00 | 0.13 | 0.00 | 47 | 1016.0 |
| 20260510211804 | 15 | 0 | 0.0 | 0.0 | 0.00 | 0.13 | 0.00 | 48 | 1015.8 |
| 20260510210903 | 15 | 0 | 0.0 | 0.0 | 0.00 | 0.13 | 0.00 | 46 | 1015.7 |
| 20260510210004 | 15 | 0 | 0.0 | 0.0 | 0.00 | 0.13 | 0.00 | 48 | 1015.7 |
| 20260510205403 | 16 | 0 | 0.0 | 0.0 | 0.00 | 0.13 | 0.00 | 49 | 1015.8 |
| 20260510204503 | 16 | 0 | 0.0 | 0.0 | 0.00 | 0.13 | 0.00 | 46 | 1015.8 |
| 20260510203822 | 16 | 0 | 0.0 | 0.0 | 0.00 | 0.13 | 0.00 | 48 | 1015.8 |
| 20260510202703 | 16 | 0 | 0.0 | 0.0 | 0.00 | 0.13 | 0.00 | 45 | 1015.8 |
| 20260510202017 | 16 | 0 | 0.0 | 0.0 | 0.00 | 0.13 | 0.00 | 45 | 1015.8 |
| 20260510200904 | 16 | 0 | 0.0 | 0.0 | 0.00 | 0.13 | 0.00 | 47 | 1015.9 |
| 20260510200004 | 15 | 0 | 0.0 | 0.0 | 0.00 | 0.13 | 0.00 | 48 | 1016.1 |
| 20260510195403 | 16 | 0 | 0.0 | 0.0 | 0.00 | 0.13 | 0.00 | 45 | 1016.1 |
| 20260510194504 | 16 | 0 | 0.0 | 0.0 | 0.00 | 0.13 | 0.00 | 45 | 1016.1 |
| 20260510193604 | 16 | 0 | 0.0 | 0.0 | 0.00 | 0.13 | 0.00 | 45 | 1016.2 |
| 20260510192703 | 16 | 0 | 0.0 | 0.0 | 0.00 | 0.13 | 0.00 | 44 | 1016.1 |
| 20260510191803 | 17 | 0 | 0.0 | 0.0 | 0.00 | 0.13 | 0.00 | 44 | 1016.1 |
| 20260510190903 | 16 | 0 | 0.0 | 0.0 | 0.00 | 0.13 | 0.00 | 47 | 1016.0 |
| 20260510190005 | 16 | 0 | 0.0 | 0.0 | 0.00 | 0.13 | 0.00 | 46 | 1016.0 |
| 20260510185403 | 15 | 0 | 0.0 | 0.0 | 0.00 | 0.13 | 0.00 | 44 | 1016.0 |
| 20260510184503 | 16 | 0 | 0.0 | 0.0 | 0.00 | 0.13 | 0.00 | 47 | 1015.9 |
| 20260510183604 | 16 | 0 | 0.0 | 0.0 | 0.00 | 0.13 | 0.00 | 44 | 1016.0 |
| 20260510182703 | 16 | 0 | 0.0 | 0.0 | 0.00 | 0.13 | 0.00 | 48 | 1015.9 |
| 20260510181805 | 16 | 0 | 0.0 | 0.0 | 0.00 | 0.13 | 0.00 | 47 | 1015.8 |
| 20260510180903 | 16 | 0 | 0.0 | 0.0 | 0.00 | 0.13 | 0.00 | 52 | 1015.8 |
| 20260510180005 | 15 | 0 | 0.0 | 0.0 | 0.00 | 0.13 | 0.00 | 48 | 1015.6 |
| 20260510175403 | 15 | 0 | 0.0 | 0.0 | 0.00 | 0.13 | 0.00 | 51 | 1015.5 |
| 20260510174503 | 15 | 0 | 0.0 | 0.0 | 0.00 | 0.13 | 0.00 | 52 | 1015.6 |
| 20260510173603 | 15 | 0 | 0.0 | 0.0 | 0.00 | 0.13 | 0.00 | 51 | 1015.8 |
| 20260510172703 | 15 | 0 | 0.0 | 0.0 | 0.00 | 0.13 | 0.00 | 51 | 1015.7 |
| 20260510171804 | 15 | 0 | 0.0 | 0.0 | 0.00 | 0.13 | 0.00 | 56 | 1015.8 |
| 20260510170904 | 15 | 0 | 0.0 | 0.0 | 0.00 | 0.13 | 0.00 | 54 | 1016.0 |
| 20260510170005 | 14 | 0 | 0.0 | 0.0 | 0.00 | 0.13 | 0.00 | 57 | 1016.0 |
| 20260510165404 | 14 | 0 | 0.0 | 0.0 | 0.00 | 0.13 | 0.00 | 53 | 1016.0 |
| 20260510164504 | 15 | 0 | 0.0 | 0.0 | 0.00 | 0.13 | 0.00 | 55 | 1016.1 |
| 20260510163604 | 14 | 0 | 0.0 | 0.0 | 0.00 | 0.13 | 0.00 | 53 | 1016.0 |
| 20260510162922 | 14 | 0 | 0.0 | 0.0 | 0.00 | 0.13 | 0.00 | 53 | 1015.9 |
| 20260510161804 | 13 | 0 | 0.0 | 0.0 | 0.00 | 0.13 | 0.00 | 53 | 1015.8 |
| 20260510160903 | 13 | 0 | 0.0 | 0.0 | 0.00 | 0.13 | 0.00 | 59 | 1015.7 |
| 20260510160219 | 13 | 0 | 0.0 | 0.0 | 0.00 | 0.13 | 0.00 | 57 | 1015.8 |
| 20260510155403 | 13 | 0 | 0.0 | 0.0 | 0.00 | 0.13 | 0.00 | 58 | 1015.8 |
| 20260510154503 | 13 | 0 | 0.0 | 0.0 | 0.00 | 0.13 | 0.00 | 56 | 1015.7 |
| 20260510153604 | 13 | 0 | 0.0 | 0.0 | 0.00 | 0.13 | 0.00 | 62 | 1015.5 |
| 20260510152923 | 12 | 0 | 0.0 | 0.0 | 0.00 | 0.13 | 0.00 | 58 | 1015.5 |
| 20260510151804 | 12 | 0 | 0.0 | 0.0 | 0.00 | 0.13 | 0.00 | 60 | 1015.3 |
| 20260510150904 | 12 | 0 | 0.0 | 0.0 | 0.00 | 0.13 | 0.00 | 61 | 1015.1 |
| 20260510150004 | 12 | 0 | 0.0 | 0.0 | 0.00 | 0.13 | 0.00 | 60 | 1015.1 |
| 20260510145403 | 12 | 0 | 0.0 | 0.0 | 0.00 | 0.13 | 0.00 | 64 | 1015.0 |
| 20260510144718 | 11 | 0 | 0.0 | 0.0 | 0.00 | 0.13 | 0.00 | 61 | 1014.9 |
| 20260510143604 | 12 | 0 | 0.0 | 0.0 | 0.00 | 0.13 | 0.00 | 67 | 1014.7 |
| 20260510142703 | 11 | 0 | 0.0 | 0.0 | 0.00 | 0.13 | 0.00 | 68 | 1014.5 |
| 20260510142021 | 11 | 0 | 0.0 | 0.0 | 0.00 | 0.13 | 0.00 | 71 | 1014.4 |
| 20260510141118 | 11 | 0 | 0.0 | 0.0 | 0.00 | 0.13 | 0.00 | 72 | 1014.3 |
| 20260510140003 | 11 | 0 | 0.0 | 0.0 | 0.00 | 0.13 | 0.00 | 71 | 1014.3 |
| 20260510135403 | 11 | 0 | 0.0 | 0.0 | 0.00 | 0.13 | 0.00 | 72 | 1014.3 |
| 20260510134504 | 10 | 0 | 0.0 | 0.0 | 0.00 | 0.13 | 0.00 | 71 | 1014.3 |
| 20260510133603 | 10 | 0 | 0.0 | 0.0 | 0.00 | 0.13 | 0.00 | 72 | 1014.2 |
| 20260510132703 | 10 | 0 | 0.0 | 0.0 | 0.00 | 0.13 | 0.00 | 75 | 1014.2 |
| 20260510131803 | 10 | 0 | 0.0 | 0.0 | 0.00 | 0.13 | 0.00 | 76 | 1014.1 |
| 20260510130903 | 9 | 0 | 0.0 | 0.0 | 0.00 | 0.13 | 0.00 | 77 | 1014.1 |
| 20260510130004 | 9 | 0 | 0.0 | 0.0 | 0.00 | 0.13 | 0.00 | 78 | 1013.9 |
| 20260510125403 | 9 | 0 | 0.0 | 0.0 | 0.00 | 0.13 | 0.00 | 78 | 1013.7 |
| 20260510124720 | 9 | 0 | 0.0 | 0.0 | 0.00 | 0.13 | 0.00 | 79 | 1013.8 |
| 20260510123817 | 9 | 0 | 0.0 | 0.0 | 0.00 | 0.13 | 0.00 | 80 | 1013.5 |
| 20260510122704 | 9 | 0 | 0.0 | 0.0 | 0.00 | 0.13 | 0.00 | 80 | 1013.2 |
| 20260510121804 | 9 | 0 | 0.0 | 0.0 | 0.00 | 0.13 | 0.00 | 79 | 1013.1 |
| 20260510120904 | 9 | 0 | 0.0 | 0.0 | 0.00 | 0.13 | 0.00 | 79 | 1013.0 |
| 20260510120005 | 9 | 0 | 0.0 | 0.0 | 0.00 | 0.13 | 0.00 | 78 | 1012.8 |
| 20260510115405 | 9 | 0 | 0.0 | 0.0 | 0.00 | 0.13 | 0.00 | 78 | 1012.8 |
| 20260510114503 | 9 | 0 | 0.0 | 0.0 | 0.00 | 0.13 | 0.00 | 78 | 1012.5 |
| 20260510113603 | 9 | 0 | 0.0 | 0.0 | 0.00 | 0.13 | 0.00 | 79 | 1012.1 |
| 20260510112920 | 9 | 0 | 0.0 | 0.0 | 0.00 | 0.13 | 0.00 | 79 | 1012.1 |
| 20260510111804 | 9 | 0 | 0.0 | 0.0 | 0.00 | 0.13 | 0.00 | 80 | 1012.1 |
| 20260510111120 | 8 | 0 | 0.0 | 0.0 | 0.00 | 0.13 | 0.00 | 80 | 1011.8 |
| 20260510110004 | 8 | 0 | 0.0 | 0.0 | 0.00 | 0.13 | 0.00 | 80 | 1011.6 |
| 20260510105619 | 8 | 0 | 0.0 | 0.0 | 0.00 | 0.13 | 0.00 | 80 | 1011.5 |
| 20260510104503 | 8 | 0 | 0.0 | 0.0 | 0.00 | 0.13 | 0.00 | 79 | 1011.4 |
| 20260510103818 | 8 | 0 | 0.0 | 0.0 | 0.00 | 0.13 | 0.00 | 79 | 1011.2 |
| 20260510102704 | 8 | 0 | 0.0 | 0.0 | 0.00 | 0.13 | 0.00 | 79 | 1011.0 |
| 20260510101803 | 8 | 0 | 0.0 | 0.0 | 0.00 | 0.13 | 0.00 | 79 | 1010.9 |
| 20260510101120 | 8 | 0 | 0.0 | 0.0 | 0.00 | 0.13 | 0.00 | 79 | 1010.7 |
| 20260510100008 | 8 | 0 | 0.0 | 0.0 | 0.00 | 0.13 | 0.00 | 81 | 1010.4 |
| 20260510095403 | 8 | 0 | 0.0 | 0.0 | 0.00 | 0.13 | 0.00 | 82 | 1010.4 |
| 20260510094504 | 8 | 0 | 0.0 | 0.0 | 0.00 | 0.13 | 0.00 | 83 | 1010.3 |
| 20260510093819 | 8 | 0 | 0.0 | 0.0 | 0.00 | 0.13 | 0.00 | 83 | 1010.2 |
| 20260510092704 | 8 | 0 | 0.0 | 0.0 | 0.00 | 0.13 | 0.00 | 83 | 1010.3 |
| 20260510091803 | 8 | 0 | 0.0 | 0.0 | 0.00 | 0.13 | 0.00 | 82 | 1010.1 |
| 20260510090905 | 8 | 0 | 0.0 | 0.0 | 0.00 | 0.13 | 0.00 | 81 | 1010.0 |
| 20260510090003 | 8 | 0 | 0.0 | 0.0 | 0.00 | 0.13 | 0.00 | 81 | 1010.1 |
| 20260510085403 | 8 | 0 | 0.0 | 0.0 | 0.00 | 0.13 | 0.00 | 81 | 1010.0 |
| 20260510084504 | 8 | 0 | 0.0 | 0.0 | 0.00 | 0.13 | 0.00 | 80 | 1009.8 |
| 20260510083603 | 9 | 0 | 0.0 | 0.0 | 0.00 | 0.13 | 0.00 | 80 | 1009.7 |
| 20260510082922 | 9 | 0 | 0.0 | 0.0 | 0.00 | 0.13 | 0.00 | 80 | 1009.6 |
| 20260510081803 | 10 | 0 | 0.0 | 0.0 | 0.00 | 0.13 | 0.00 | 78 | 1009.4 |
| 20260510080904 | 10 | 0 | 0.0 | 0.0 | 0.00 | 0.13 | 0.00 | 78 | 1009.3 |
| 20260510080004 | 10 | 0 | 0.0 | 0.0 | 0.00 | 0.13 | 0.00 | 77 | 1009.2 |
| 20260510075403 | 10 | 0 | 0.0 | 0.0 | 0.00 | 0.13 | 0.00 | 77 | 1009.1 |
| 20260510074503 | 10 | 0 | 0.0 | 0.0 | 0.00 | 0.13 | 0.00 | 77 | 1008.8 |
| 20260510073603 | 11 | 0 | 0.0 | 0.0 | 0.00 | 0.13 | 0.00 | 76 | 1008.9 |
| 20260510072704 | 11 | 0 | 0.0 | 0.0 | 0.00 | 0.13 | 0.00 | 76 | 1008.9 |
| 20260510071803 | 11 | 0 | 0.0 | 0.0 | 0.00 | 0.13 | 0.00 | 75 | 1008.6 |
| 20260510071117 | 11 | 0 | 0.0 | 0.0 | 0.00 | 0.13 | 0.00 | 76 | 1008.7 |
| 20260510070004 | 12 | 0 | 0.0 | 0.0 | 0.00 | 0.15 | 0.00 | 78 | 1008.5 |
| 20260510065403 | 12 | 0 | 0.0 | 0.0 | 0.00 | 0.15 | 0.00 | 79 | 1008.5 |
| 20260510064503 | 12 | 0 | 0.0 | 0.0 | 0.00 | 0.15 | 0.00 | 79 | 1008.4 |
| 20260510063603 | 12 | 0 | 0.0 | 0.0 | 0.00 | 0.15 | 0.00 | 79 | 1008.3 |
| 20260510062704 | 13 | 0 | 0.0 | 0.0 | 0.00 | 0.15 | 0.00 | 80 | 1008.1 |
| 20260510061803 | 13 | 0 | 0.0 | 0.0 | 0.00 | 0.15 | 0.00 | 81 | 1008.0 |
| 20260510061118 | 13 | 0 | 0.0 | 0.0 | 0.00 | 0.15 | 0.00 | 82 | 1007.9 |
| 20260510060220 | 13 | 0 | 0.0 | 0.0 | 0.00 | 0.23 | 0.00 | 82 | 1007.8 |
| 20260510055622 | 13 | 0 | 0.0 | 0.0 | 0.00 | 0.28 | 0.00 | 83 | 1007.8 |
| 20260510054504 | 14 | 0 | 0.0 | 0.0 | 0.00 | 0.36 | 0.00 | 81 | 1007.7 |
| 20260510053603 | 14 | 0 | 0.0 | 0.0 | 0.00 | 0.43 | 0.00 | 82 | 1007.6 |
| 20260510052919 | 13 | 0 | 0.0 | 0.0 | 0.00 | 0.46 | 0.00 | 83 | 1007.5 |
| 20260510051804 | 13 | 0 | 0.0 | 0.0 | 0.00 | 0.46 | 0.00 | 83 | 1007.2 |
| 20260510050904 | 13 | 0 | 0.0 | 0.0 | 0.00 | 0.46 | 0.00 | 84 | 1006.9 |
| 20260510050003 | 13 | 0 | 0.0 | 0.0 | 0.00 | 0.46 | 0.00 | 85 | 1006.9 |
| 20260510045404 | 13 | 0 | 0.0 | 0.0 | 0.00 | 0.48 | 0.00 | 86 | 1006.9 |
| 20260510044503 | 13 | 0 | 0.0 | 0.0 | 0.00 | 0.53 | 0.00 | 86 | 1006.7 |
| 20260510043817 | 13 | 0 | 0.0 | 0.0 | 0.00 | 0.58 | 0.00 | 87 | 1006.6 |
| 20260510042704 | 13 | 0 | 0.0 | 0.0 | 0.05 | 0.69 | 0.00 | 87 | 1006.6 |
| 20260510042017 | 13 | 0 | 0.0 | 0.0 | 0.05 | 0.71 | 0.00 | 89 | 1006.6 |
| 20260510040903 | 12 | 0 | 0.0 | 0.0 | 0.05 | 0.74 | 0.00 | 92 | 1006.7 |
| 20260510040010 | 12 | 0 | 0.0 | 0.0 | 0.05 | 0.74 | 0.00 | 93 | 1006.8 |
| 20260510035403 | 12 | 0 | 0.0 | 0.0 | 0.05 | 0.74 | 0.74 | 92 | 1006.8 |
| 20260510034720 | 12 | 0 | 0.0 | 0.0 | 0.05 | 0.74 | 0.74 | 92 | 1006.3 |
| 20260510033604 | 12 | 0 | 0.0 | 0.0 | 0.05 | 0.74 | 0.74 | 93 | 1006.1 |
| 20260510032920 | 12 | 0 | 0.0 | 0.0 | 0.03 | 0.71 | 0.71 | 93 | 1006.3 |
| 20260510031804 | 12 | 0 | 0.0 | 0.0 | 0.00 | 0.71 | 0.69 | 93 | 1006.1 |
| 20260510031120 | 12 | 0 | 0.0 | 0.0 | 0.00 | 0.76 | 0.69 | 93 | 1006.2 |
| 20260510030004 | 12 | 0 | 0.0 | 0.0 | 0.00 | 0.79 | 0.69 | 93 | 1006.3 |
| 20260510025404 | 12 | 0 | 0.0 | 0.0 | 0.00 | 0.79 | 0.69 | 93 | 1006.3 |
| 20260510024503 | 12 | 0 | 0.0 | 0.0 | 0.00 | 0.79 | 0.69 | 92 | 1006.3 |
| 20260510023818 | 12 | 0 | 0.0 | 0.0 | 0.00 | 0.81 | 0.69 | 92 | 1006.4 |
| 20260510022704 | 12 | 0 | 0.0 | 0.0 | 0.00 | 0.81 | 0.69 | 92 | 1006.2 |
| 20260510021804 | 13 | 0 | 0.0 | 0.0 | 0.00 | 0.81 | 0.69 | 92 | 1006.0 |
| 20260510020904 | 13 | 0 | 0.0 | 0.0 | 0.00 | 0.81 | 0.69 | 92 | 1005.9 |
| 20260510020004 | 13 | 0 | 0.0 | 0.0 | 0.00 | 0.81 | 0.69 | 92 | 1005.8 |
| 20260510015403 | 13 | 0 | 0.0 | 0.0 | 0.00 | 0.81 | 0.69 | 92 | 1005.7 |
| 20260510014716 | 13 | 0 | 0.0 | 0.0 | 0.00 | 0.81 | 0.69 | 92 | 1005.6 |
| 20260510013604 | 13 | 0 | 0.0 | 0.0 | 0.00 | 0.81 | 0.69 | 91 | 1005.5 |
| 20260510012704 | 13 | 0 | 0.0 | 0.0 | 0.00 | 0.84 | 0.69 | 91 | 1005.1 |
| 20260510011803 | 13 | 0 | 0.0 | 0.0 | 0.00 | 0.84 | 0.69 | 91 | 1005.1 |
| 20260510010904 | 13 | 0 | 0.0 | 0.0 | 0.00 | 0.84 | 0.69 | 91 | 1005.0 |
| 20260510010005 | 13 | 0 | 0.0 | 0.0 | 0.00 | 0.84 | 0.69 | 91 | 1005.0 |
| 20260510005403 | 13 | 0 | 0.0 | 0.0 | 0.00 | 0.84 | 0.69 | 90 | 1005.0 |
| 20260510004505 | 13 | 0 | 0.0 | 0.0 | 0.03 | 0.86 | 0.69 | 90 | 1004.8 |
| 20260510003603 | 13 | 0 | 0.0 | 0.0 | 0.08 | 0.86 | 0.69 | 89 | 1004.8 |
| 20260510002703 | 13 | 0 | 0.0 | 0.0 | 0.08 | 0.86 | 0.69 | 89 | 1004.7 |
| 20260510001804 | 13 | 0 | 0.0 | 0.0 | 0.08 | 0.86 | 0.69 | 88 | 1004.6 |
| 20260510000903 | 13 | 0 | 0.0 | 0.0 | 0.08 | 0.86 | 0.69 | 88 | 1004.7 |
| 20260510000008 | 13 | 0 | 0.0 | 0.0 | 0.08 | 0.86 | 0.69 | 87 | 1004.8 |
| 20260509235404 | 13 | 0 | 0.0 | 0.0 | 0.08 | 0.86 | 0.69 | 86 | 1004.9 |
| 20260509234503 | 14 | 0 | 0.0 | 0.0 | 0.05 | 0.84 | 0.66 | 84 | 1005.0 |
| 20260509233603 | 15 | 0 | 0.0 | 0.0 | 0.00 | 0.79 | 0.61 | 79 | 1004.8 |
| 20260509232703 | 16 | 0 | 0.0 | 0.0 | 0.00 | 0.81 | 0.61 | 74 | 1004.8 |
| 20260509231803 | 18 | 0 | 0.0 | 0.0 | 0.00 | 0.81 | 0.61 | 64 | 1004.6 |
| 20260509230904 | 20 | 0 | 0.0 | 0.0 | 0.00 | 0.84 | 0.61 | 60 | 1003.3 |
| 20260509230220 | 20 | 0 | 0.0 | 0.0 | 0.00 | 0.84 | 0.61 | 58 | 1003.4 |
| 20260509225403 | 20 | 0 | 0.0 | 0.0 | 0.00 | 0.84 | 0.61 | 56 | 1003.3 |
| 20260509224718 | 21 | 0 | 0.0 | 0.0 | 0.00 | 0.86 | 0.61 | 56 | 1003.3 |
| 20260509223603 | 21 | 0 | 0.0 | 0.0 | 0.00 | 0.89 | 0.61 | 55 | 1003.3 |
| 20260509222704 | 20 | 0 | 0.0 | 0.0 | 0.00 | 0.94 | 0.61 | 57 | 1002.9 |
| 20260509221804 | 20 | 0 | 0.0 | 0.0 | 0.00 | 0.97 | 0.61 | 57 | 1002.9 |